Tracking 31027 objects as of 19-Jul-2025
HD Live streaming from Space Station
objects crossing your sky now

STARLINK-3594

Track STARLINK-3594 now!
10-day predictions
STARLINK-3594 is classified as:


NORAD ID: 51895
Int'l Code: 2022-022AV
Perigee: 546.0 km
Apogee: 547.8 km
Inclination: 53.2 °
Period: 95.4 minutes
Semi major axis: 6917 km
RCS: Unknown
Launch date: March 3, 2022
Source: United States (US)
Launch site: AIR FORCE EASTERN TEST RANGE (AFETR)
Your satellite tracking list
TITAN 3C TRANSTAGE DEB
Track 1 satellite(s)




NASA's NSSDC Master Catalog

Two Line Element Set (TLE):
1 51895U 22022AV  25199.50819384  .00000190  00000-0  30031-4 0  9991
2 51895  53.2187 330.4029 0001321  89.1840 270.9303 15.08835900187890
Source of the keplerian elements: AFSPC